Time,TemperatureF,DewpointF,PressureIn,WindDirection,WindDirectionDegrees,WindSpeedMPH,WindSpeedGustMPH,Humidity,HourlyPrecipIn,Conditions,Clouds,dailyrainin,SoftwareType,DateUTC
2013-05-01 00:04:00,37.2,16.3,29.32,NNE,30,0.0,0.0,42,0.00,,CLR,0.00,VWS V14.00,2013-05-01 07:04:00,
2013-05-01 00:09:00,37.0,16.1,29.32,NNE,30,0.0,0.0,42,0.00,,CLR,0.00,VWS V14.00,2013-05-01 07:09:00,
2013-05-01 00:14:00,36.9,15.9,29.32,NNE,30,0.0,0.0,42,0.00,,CLR,0.00,VWS V14.00,2013-05-01 07:14:00,
2013-05-01 00:20:00,36.5,15.6,29.32,NNE,30,0.0,0.0,42,0.00,,CLR,0.00,VWS V14.00,2013-05-01 07:20:00,
2013-05-01 00:26:00,36.3,15.4,29.32,NNE,30,0.0,0.0,42,0.00,,CLR,0.00,VWS V14.00,2013-05-01 07:26:00,
2013-05-01 00:32:00,36.1,15.8,29.32,NNE,30,0.0,0.0,43,0.00,,CLR,0.00,VWS V14.00,2013-05-01 07:32:00,
2013-05-01 00:37:00,36.1,15.8,29.32,NNE,30,0.0,0.0,43,0.00,,CLR,0.00,VWS V14.00,2013-05-01 07:37:00,
2013-05-01 00:42:00,36.0,15.6,29.32,NNE,30,0.0,0.0,43,0.00,,CLR,0.00,VWS V14.00,2013-05-01 07:42:00,
2013-05-01 00:48:00,35.8,16.0,29.32,NNE,30,0.0,0.0,44,0.00,,CLR,0.00,VWS V14.00,2013-05-01 07:48:00,
2013-05-01 00:53:00,35.8,16.0,29.32,NNE,30,0.0,0.0,44,0.00,,CLR,0.00,VWS V14.00,2013-05-01 07:53:00,
2013-05-01 00:59:00,35.6,15.9,29.32,NNE,30,0.0,0.0,44,0.00,,CLR,0.00,VWS V14.00,2013-05-01 07:59:00,
2013-05-01 01:05:00,35.4,16.2,29.32,NNE,30,0.0,0.0,45,0.00,,CLR,0.00,VWS V14.00,2013-05-01 08:05:00,
2013-05-01 01:10:00,35.1,15.9,29.32,NNE,30,0.0,0.0,45,0.00,,CLR,0.00,VWS V14.00,2013-05-01 08:10:00,
2013-05-01 01:16:00,35.1,15.9,29.32,NNE,30,0.0,0.0,45,0.00,,CLR,0.00,VWS V14.00,2013-05-01 08:16:00,
2013-05-01 01:22:00,34.9,15.7,29.32,NNE,30,0.0,0.0,45,0.00,,CLR,0.00,VWS V14.00,2013-05-01 08:22:00,
2013-05-01 01:28:00,34.9,16.2,29.32,NNE,30,0.0,0.0,46,0.00,,CLR,0.00,VWS V14.00,2013-05-01 08:28:00,
2013-05-01 01:33:00,34.9,16.2,29.32,NNE,30,0.0,0.0,46,0.00,,CLR,0.00,VWS V14.00,2013-05-01 08:33:00,
2013-05-01 01:39:00,34.9,16.7,29.32,NNE,30,0.0,0.0,47,0.00,,CLR,0.00,VWS V14.00,2013-05-01 08:39:00,
2013-05-01 01:45:00,34.9,16.7,29.32,NE,34,0.0,0.0,47,0.00,,CLR,0.00,VWS V14.00,2013-05-01 08:45:00,
2013-05-01 01:50:00,35.1,17.4,29.32,NE,34,0.0,0.0,48,0.00,,CLR,0.00,VWS V14.00,2013-05-01 08:50:00,
2013-05-01 01:56:00,35.4,17.7,29.32,NNE,33,0.0,0.0,48,0.00,,CLR,0.00,VWS V14.00,2013-05-01 08:56:00,
2013-05-01 02:01:00,35.4,18.2,29.32,NNE,33,0.0,0.0,49,0.00,,CLR,0.00,VWS V14.00,2013-05-01 09:01:00,
2013-05-01 02:07:00,35.4,18.2,29.32,NNE,31,0.0,0.0,49,0.00,,CLR,0.00,VWS V14.00,2013-05-01 09:07:00,
2013-05-01 02:13:00,35.2,18.0,29.32,NNE,31,0.0,0.0,49,0.00,,CLR,0.00,VWS V14.00,2013-05-01 09:13:00,
2013-05-01 02:18:00,35.1,17.8,29.32,NNE,28,2.2,2.7,49,0.00,,CLR,0.00,VWS V14.00,2013-05-01 09:18:00,
2013-05-01 02:24:00,35.1,17.8,29.32,NNE,27,0.0,0.0,49,0.00,,CLR,0.00,VWS V14.00,2013-05-01 09:24:00,
2013-05-01 02:29:00,34.9,18.1,29.32,NNE,27,0.0,0.0,50,0.00,,CLR,0.00,VWS V14.00,2013-05-01 09:29:00,
2013-05-01 02:35:00,34.7,18.0,29.32,NNE,27,0.0,0.0,50,0.00,,CLR,0.00,VWS V14.00,2013-05-01 09:35:00,
2013-05-01 02:41:00,34.5,17.8,29.32,NNE,27,0.0,0.0,50,0.00,,CLR,0.00,VWS V14.00,2013-05-01 09:41:00,
2013-05-01 02:46:00,34.5,17.8,29.32,NNE,27,0.0,0.0,50,0.00,,CLR,0.00,VWS V14.00,2013-05-01 09:46:00,
2013-05-01 02:52:00,34.3,17.6,29.32,NNE,27,0.0,0.0,50,0.00,,CLR,0.00,VWS V14.00,2013-05-01 09:52:00,
2013-05-01 02:57:00,34.2,17.5,29.32,NNE,27,0.0,0.0,50,0.00,,CLR,0.00,VWS V14.00,2013-05-01 09:57:00,
2013-05-01 03:03:00,34.0,17.3,29.32,NNE,27,0.0,0.0,50,0.00,,CLR,0.00,VWS V14.00,2013-05-01 10:03:00,
2013-05-01 03:08:00,34.0,17.3,29.32,NNE,27,0.0,0.0,50,0.00,,CLR,0.00,VWS V14.00,2013-05-01 10:08:00,
2013-05-01 03:14:00,33.8,17.1,29.32,NNE,27,0.0,0.0,50,0.00,,CLR,0.00,VWS V14.00,2013-05-01 10:14:00,
2013-05-01 03:19:00,33.8,17.6,29.32,NNE,27,0.0,0.0,51,0.00,,CLR,0.00,VWS V14.00,2013-05-01 10:19:00,
2013-05-01 03:24:00,33.8,17.6,29.32,NNE,27,0.0,0.0,51,0.00,,CLR,0.00,VWS V14.00,2013-05-01 10:24:00,
2013-05-01 03:30:00,34.0,17.8,29.32,NNE,27,0.0,0.0,51,0.00,,CLR,0.00,VWS V14.00,2013-05-01 10:30:00,
2013-05-01 03:35:00,34.0,17.8,29.32,NNE,27,0.0,0.0,51,0.00,,CLR,0.00,VWS V14.00,2013-05-01 10:35:00,
2013-05-01 03:41:00,34.0,17.8,29.32,NNE,27,0.0,0.0,51,0.00,,CLR,0.00,VWS V14.00,2013-05-01 10:41:00,
2013-05-01 03:46:00,33.8,17.6,29.32,NNE,27,0.0,0.0,51,0.00,,CLR,0.00,VWS V14.00,2013-05-01 10:46:00,
2013-05-01 03:51:00,34.0,17.8,29.32,NNE,27,0.0,0.0,51,0.00,,CLR,0.00,VWS V14.00,2013-05-01 10:51:00,
2013-05-01 03:56:00,33.8,17.6,29.32,NNE,27,0.0,0.0,51,0.00,,CLR,0.00,VWS V14.00,2013-05-01 10:56:00,
2013-05-01 04:02:00,33.6,17.9,29.32,NNE,27,0.0,0.0,52,0.00,,CLR,0.00,VWS V14.00,2013-05-01 11:02:00,
2013-05-01 04:07:00,33.6,17.9,29.32,NNE,27,0.0,0.0,52,0.00,,CLR,0.00,VWS V14.00,2013-05-01 11:07:00,
2013-05-01 04:13:00,33.4,17.7,29.32,NNE,27,0.0,0.0,52,0.00,,CLR,0.00,VWS V14.00,2013-05-01 11:13:00,
2013-05-01 04:19:00,33.4,17.7,29.32,NNE,27,0.0,0.0,52,0.00,,CLR,0.00,VWS V14.00,2013-05-01 11:19:00,
2013-05-01 04:24:00,33.3,17.5,29.32,NNE,27,0.0,0.0,52,0.00,,CLR,0.00,VWS V14.00,2013-05-01 11:24:00,
2013-05-01 04:30:00,33.1,17.4,29.32,NNE,27,0.0,0.0,52,0.00,,CLR,0.00,VWS V14.00,2013-05-01 11:30:00,
2013-05-01 04:35:00,33.1,17.4,29.32,NNE,27,0.0,0.0,52,0.00,,CLR,0.00,VWS V14.00,2013-05-01 11:35:00,
2013-05-01 04:41:00,33.1,17.4,29.32,NNE,27,0.0,0.0,52,0.00,,CLR,0.00,VWS V14.00,2013-05-01 11:41:00,
2013-05-01 04:47:00,33.1,17.8,29.32,NNE,27,0.0,0.0,53,0.00,,CLR,0.00,VWS V14.00,2013-05-01 11:47:00,
2013-05-01 04:52:00,33.1,17.8,29.32,NNE,27,0.0,0.0,53,0.00,,CLR,0.00,VWS V14.00,2013-05-01 11:52:00,
2013-05-01 04:58:00,33.1,17.8,29.32,NNE,27,0.0,0.0,53,0.00,,CLR,0.00,VWS V14.00,2013-05-01 11:58:00,
2013-05-01 05:03:00,33.1,17.8,29.32,NNE,27,0.0,0.0,53,0.00,,CLR,0.00,VWS V14.00,2013-05-01 12:03:00,
2013-05-01 05:09:00,33.1,17.8,29.32,NNE,27,0.0,0.0,53,0.00,,CLR,0.00,VWS V14.00,2013-05-01 12:09:00,
2013-05-01 05:15:00,33.3,18.4,29.32,NNE,29,0.0,0.0,54,0.00,,CLR,0.00,VWS V14.00,2013-05-01 12:15:00,
2013-05-01 05:20:00,33.4,18.6,29.32,NNE,29,0.0,0.0,54,0.00,,CLR,0.00,VWS V14.00,2013-05-01 12:20:00,
2013-05-01 05:26:00,33.6,18.8,29.32,NNE,29,0.0,0.0,54,0.00,,CLR,0.00,VWS V14.00,2013-05-01 12:26:00,
2013-05-01 05:31:00,33.6,18.8,29.32,NNE,29,0.0,0.0,54,0.00,,CLR,0.00,VWS V14.00,2013-05-01 12:31:00,
2013-05-01 05:36:00,33.4,18.6,29.32,NNE,29,0.0,0.0,54,0.00,,CLR,0.00,VWS V14.00,2013-05-01 12:36:00,
2013-05-01 05:41:00,33.4,18.6,29.32,NNE,29,0.0,0.0,54,0.00,,CLR,0.00,VWS V14.00,2013-05-01 12:41:00,
2013-05-01 05:47:00,33.3,18.4,29.32,NNE,29,0.0,0.0,54,0.00,,CLR,0.00,VWS V14.00,2013-05-01 12:47:00,
2013-05-01 05:52:00,33.3,18.4,29.32,NNE,29,0.0,0.0,54,0.00,,CLR,0.00,VWS V14.00,2013-05-01 12:52:00,
2013-05-01 05:58:00,33.1,18.3,29.32,NNE,29,0.0,0.0,54,0.00,,CLR,0.00,VWS V14.00,2013-05-01 12:58:00,
2013-05-01 06:04:00,33.1,18.3,29.32,NNE,29,0.0,0.0,54,0.00,,CLR,0.00,VWS V14.00,2013-05-01 13:04:00,
2013-05-01 06:09:00,32.9,18.1,29.32,NNE,29,0.0,0.0,54,0.00,,CLR,0.00,VWS V14.00,2013-05-01 13:09:00,
2013-05-01 06:15:00,32.9,18.1,29.32,NNE,29,0.0,0.0,54,0.00,,CLR,0.00,VWS V14.00,2013-05-01 13:15:00,
2013-05-01 06:20:00,32.9,18.5,29.32,NNE,29,0.0,0.0,55,0.00,,CLR,0.00,VWS V14.00,2013-05-01 13:20:00,
2013-05-01 06:26:00,32.9,18.5,29.32,NNE,29,0.0,0.0,55,0.00,,CLR,0.00,VWS V14.00,2013-05-01 13:26:00,
2013-05-01 06:32:00,32.9,18.5,29.32,NNE,29,0.0,0.0,55,0.00,,CLR,0.00,VWS V14.00,2013-05-01 13:32:00,
2013-05-01 06:37:00,33.1,18.7,29.32,NNE,29,0.0,0.0,55,0.00,,CLR,0.00,VWS V14.00,2013-05-01 13:37:00,
2013-05-01 06:43:00,33.3,18.9,29.32,NNE,29,0.0,0.0,55,0.00,,CLR,0.00,VWS V14.00,2013-05-01 13:43:00,
2013-05-01 06:48:00,33.4,19.4,29.32,NNE,29,0.0,0.0,56,0.00,,CLR,0.00,VWS V14.00,2013-05-01 13:48:00,
2013-05-01 06:54:00,33.6,19.6,29.32,NNE,29,0.0,0.0,56,0.00,,CLR,0.00,VWS V14.00,2013-05-01 13:54:00,
2013-05-01 07:00:00,33.8,19.8,29.32,East,88,0.0,0.0,56,0.00,,CLR,0.00,VWS V14.00,2013-05-01 14:00:00,
2013-05-01 07:05:00,34.3,20.3,29.32,East,88,0.0,2.2,56,0.00,,CLR,0.00,VWS V14.00,2013-05-01 14:05:00,
2013-05-01 07:10:00,34.7,20.6,29.32,East,97,0.0,0.0,56,0.00,,CLR,0.00,VWS V14.00,2013-05-01 14:10:00,
2013-05-01 07:15:00,35.4,21.7,29.32,SSE,153,2.7,4.0,57,0.00,,CLR,0.00,VWS V14.00,2013-05-01 14:15:00,
2013-05-01 07:20:00,35.8,22.0,29.32,ENE,65,0.0,0.0,57,0.00,,CLR,0.00,VWS V14.00,2013-05-01 14:20:00,
2013-05-01 07:26:00,36.1,22.4,29.32,ENE,65,0.0,0.0,57,0.00,,CLR,0.00,VWS V14.00,2013-05-01 14:26:00,
2013-05-01 07:32:00,36.5,22.7,29.32,ENE,65,0.0,0.0,57,0.00,,CLR,0.00,VWS V14.00,2013-05-01 14:32:00,
2013-05-01 07:37:00,36.9,23.1,29.32,ENE,65,0.0,0.0,57,0.00,,CLR,0.00,VWS V14.00,2013-05-01 14:37:00,
2013-05-01 07:43:00,37.2,23.4,29.32,ENE,65,0.0,0.0,57,0.00,,CLR,0.00,VWS V14.00,2013-05-01 14:43:00,
2013-05-01 07:49:00,37.6,23.3,29.32,ENE,65,0.0,0.0,56,0.00,,CLR,0.00,VWS V14.00,2013-05-01 14:49:00,
2013-05-01 07:54:00,37.9,23.2,29.32,ENE,65,0.0,0.0,55,0.00,,CLR,0.00,VWS V14.00,2013-05-01 14:54:00,
2013-05-01 08:00:00,38.1,23.4,29.32,ENE,65,0.0,0.0,55,0.00,,CLR,0.00,VWS V14.00,2013-05-01 15:00:00,
2013-05-01 08:06:00,38.7,23.5,29.32,ENE,65,0.0,0.0,54,0.00,,CLR,0.00,VWS V14.00,2013-05-01 15:06:00,
2013-05-01 08:11:00,39.0,23.8,29.32,ENE,65,0.0,0.0,54,0.00,,CLR,0.00,VWS V14.00,2013-05-01 15:11:00,
2013-05-01 08:17:00,39.6,23.9,29.32,ENE,65,0.0,0.0,53,0.00,,CLR,0.00,VWS V14.00,2013-05-01 15:17:00,
2013-05-01 08:22:00,40.1,23.9,29.32,ENE,65,0.0,0.0,52,0.00,,CLR,0.00,VWS V14.00,2013-05-01 15:22:00,
2013-05-01 08:28:00,40.5,23.8,29.32,ENE,65,0.0,0.0,51,0.00,,CLR,0.00,VWS V14.00,2013-05-01 15:28:00,
2013-05-01 08:33:00,41.0,23.8,29.32,ENE,65,0.0,0.0,50,0.00,,CLR,0.00,VWS V14.00,2013-05-01 15:33:00,
2013-05-01 08:39:00,41.4,23.6,29.32,ENE,65,0.0,0.0,49,0.00,,CLR,0.00,VWS V14.00,2013-05-01 15:39:00,
2013-05-01 08:44:00,41.7,23.5,29.32,ENE,65,0.0,0.0,48,0.00,,CLR,0.00,VWS V14.00,2013-05-01 15:44:00,
2013-05-01 08:50:00,42.3,23.5,29.32,ENE,65,0.0,0.0,47,0.00,,CLR,0.00,VWS V14.00,2013-05-01 15:50:00,
2013-05-01 08:55:00,42.6,22.8,29.32,North,350,0.0,0.0,45,0.00,,CLR,0.00,VWS V14.00,2013-05-01 15:55:00,
2013-05-01 09:00:00,43.0,22.0,29.32,NNE,24,2.2,3.1,43,0.00,,CLR,0.00,VWS V14.00,2013-05-01 16:00:00,
2013-05-01 09:06:00,43.9,22.3,29.32,SW,225,0.0,0.0,42,0.00,,CLR,0.00,VWS V14.00,2013-05-01 16:06:00,
2013-05-01 09:11:00,44.6,22.4,29.32,NW,307,0.0,2.7,41,0.00,,CLR,0.00,VWS V14.00,2013-05-01 16:11:00,
2013-05-01 09:17:00,45.1,22.3,29.32,SSW,207,0.0,2.2,40,0.00,,CLR,0.00,VWS V14.00,2013-05-01 16:17:00,
2013-05-01 09:22:00,45.7,22.8,29.32,SSW,207,0.0,0.0,40,0.00,,CLR,0.00,VWS V14.00,2013-05-01 16:22:00,
2013-05-01 09:28:00,46.0,22.5,29.32,NW,314,3.1,4.0,39,0.00,,CLR,0.00,VWS V14.00,2013-05-01 16:28:00,
2013-05-01 09:34:00,46.6,22.4,29.32,WSW,257,2.2,2.7,38,0.00,,CLR,0.00,VWS V14.00,2013-05-01 16:34:00,
2013-05-01 09:39:00,46.9,22.0,29.32,NNW,327,3.6,3.6,37,0.00,,CLR,0.00,VWS V14.00,2013-05-01 16:39:00,
2013-05-01 09:45:00,47.5,22.5,29.32,NE,40,0.0,2.2,37,0.00,,CLR,0.00,VWS V14.00,2013-05-01 16:45:00,
2013-05-01 09:50:00,48.0,22.4,29.32,North,353,0.0,0.0,36,0.00,,CLR,0.00,VWS V14.00,2013-05-01 16:50:00,
2013-05-01 09:56:00,48.4,22.0,29.32,NNE,19,3.1,4.0,35,0.00,,CLR,0.00,VWS V14.00,2013-05-01 16:56:00,
2013-05-01 10:01:00,48.7,21.6,29.32,SSW,193,0.0,0.0,34,0.00,,CLR,0.00,VWS V14.00,2013-05-01 17:01:00,
2013-05-01 10:07:00,49.1,21.3,29.32,SSW,209,0.0,0.0,33,0.00,,CLR,0.00,VWS V14.00,2013-05-01 17:07:00,
2013-05-01 10:13:00,49.5,20.9,29.32,NE,36,3.6,4.0,32,0.00,,CLR,0.00,VWS V14.00,2013-05-01 17:13:00,
2013-05-01 10:18:00,50.0,20.6,29.32,WNW,291,2.2,3.6,31,0.00,,CLR,0.00,VWS V14.00,2013-05-01 17:18:00,
2013-05-01 10:24:00,50.7,22.0,29.32,WSW,256,2.2,2.7,32,0.00,,CLR,0.00,VWS V14.00,2013-05-01 17:24:00,
2013-05-01 10:29:00,51.4,21.1,29.32,NNE,26,2.2,3.1,30,0.00,,CLR,0.00,VWS V14.00,2013-05-01 17:29:00,
2013-05-01 10:35:00,52.3,21.0,29.32,WSW,249,3.6,3.6,29,0.00,,CLR,0.00,VWS V14.00,2013-05-01 17:35:00,
2013-05-01 10:40:00,53.1,20.8,29.32,WSW,238,2.7,3.6,28,0.00,,CLR,0.00,VWS V14.00,2013-05-01 17:40:00,
2013-05-01 10:45:00,53.8,20.6,29.32,WNW,301,0.0,3.6,27,0.00,,CLR,0.00,VWS V14.00,2013-05-01 17:45:00,
2013-05-01 10:51:00,54.5,21.2,29.32,West,272,4.0,4.0,27,0.00,,CLR,0.00,VWS V14.00,2013-05-01 17:51:00,
2013-05-01 10:56:00,55.0,20.8,29.32,NW,314,3.1,5.4,26,0.00,,CLR,0.00,VWS V14.00,2013-05-01 17:56:00,
2013-05-01 11:02:00,55.6,21.3,29.32,South,173,2.2,2.7,26,0.00,,CLR,0.00,VWS V14.00,2013-05-01 18:02:00,
2013-05-01 11:07:00,55.8,21.4,29.32,WNW,286,0.0,0.0,26,0.00,,CLR,0.00,VWS V14.00,2013-05-01 18:07:00,
2013-05-01 11:13:00,56.1,21.7,29.32,NNE,22,3.6,3.6,26,0.00,,CLR,0.00,VWS V14.00,2013-05-01 18:13:00,
2013-05-01 11:19:00,56.8,21.4,29.32,NNW,329,2.7,4.0,25,0.00,,CLR,0.00,VWS V14.00,2013-05-01 18:19:00,
2013-05-01 11:24:00,57.2,18.7,29.32,NNW,333,4.9,7.2,22,0.00,,CLR,0.00,VWS V14.00,2013-05-01 18:24:00,
2013-05-01 11:30:00,57.6,19.0,29.32,NNW,341,0.0,3.6,22,0.00,,CLR,0.00,VWS V14.00,2013-05-01 18:30:00,
2013-05-01 11:35:00,58.1,19.5,29.32,NNW,338,4.9,5.4,22,0.00,,CLR,0.00,VWS V14.00,2013-05-01 18:35:00,
2013-05-01 11:41:00,58.6,19.9,29.32,East,79,0.0,0.0,22,0.00,,CLR,0.00,VWS V14.00,2013-05-01 18:41:00,
2013-05-01 11:47:00,59.4,20.5,29.32,NNW,337,2.7,2.7,22,0.00,,CLR,0.00,VWS V14.00,2013-05-01 18:47:00,
2013-05-01 11:52:00,60.1,21.1,29.32,WNW,285,2.7,3.1,22,0.00,,CLR,0.00,VWS V14.00,2013-05-01 18:52:00,
2013-05-01 11:58:00,60.4,18.0,29.32,NNW,340,2.7,4.9,19,0.00,,CLR,0.00,VWS V14.00,2013-05-01 18:58:00,
2013-05-01 12:03:00,60.1,17.7,29.32,SW,229,0.0,2.7,19,0.00,,CLR,0.00,VWS V14.00,2013-05-01 19:03:00,
2013-05-01 12:08:00,60.1,17.7,29.32,NNW,336,2.7,2.7,19,0.00,,CLR,0.00,VWS V14.00,2013-05-01 19:08:00,
2013-05-01 12:13:00,60.3,17.9,29.32,NW,325,3.6,3.6,19,0.00,,CLR,0.00,VWS V14.00,2013-05-01 19:13:00,
2013-05-01 12:19:00,61.2,18.6,29.32,ESE,114,0.0,2.2,19,0.00,,CLR,0.00,VWS V14.00,2013-05-01 19:19:00,
2013-05-01 12:24:00,61.3,18.8,29.32,NW,307,3.6,3.6,19,0.00,,CLR,0.00,VWS V14.00,2013-05-01 19:24:00,
2013-05-01 12:29:00,61.7,19.0,29.32,SSW,198,2.7,2.7,19,0.00,,CLR,0.00,VWS V14.00,2013-05-01 19:29:00,
2013-05-01 12:34:00,62.4,19.6,29.32,North,349,0.0,2.7,19,0.00,,CLR,0.00,VWS V14.00,2013-05-01 19:34:00,
2013-05-01 12:40:00,62.6,18.5,29.32,NW,307,2.2,5.8,18,0.00,,CLR,0.00,VWS V14.00,2013-05-01 19:40:00,
2013-05-01 12:45:00,62.8,18.7,29.32,NNE,24,3.1,5.8,18,0.00,,CLR,0.00,VWS V14.00,2013-05-01 19:45:00,
2013-05-01 12:51:00,63.5,19.3,29.32,SW,228,3.6,3.6,18,0.00,,CLR,0.00,VWS V14.00,2013-05-01 19:51:00,
2013-05-01 12:57:00,64.2,19.9,29.32,ESE,117,3.1,3.1,18,0.00,,CLR,0.00,VWS V14.00,2013-05-01 19:57:00,
2013-05-01 13:02:00,64.8,20.3,29.32,SSW,192,0.0,0.0,18,0.00,,CLR,0.00,VWS V14.00,2013-05-01 20:02:00,
2013-05-01 13:08:00,64.9,20.4,29.32,ENE,59,0.0,3.1,18,0.00,,CLR,0.00,VWS V14.00,2013-05-01 20:08:00,
2013-05-01 13:13:00,65.5,20.9,29.32,SSW,194,0.0,2.7,18,0.00,,CLR,0.00,VWS V14.00,2013-05-01 20:13:00,
2013-05-01 13:19:00,65.8,21.2,29.32,ENE,78,0.0,0.0,18,0.00,,CLR,0.00,VWS V14.00,2013-05-01 20:19:00,
2013-05-01 13:25:00,66.0,21.3,29.32,WNW,289,2.7,4.9,18,0.00,,CLR,0.00,VWS V14.00,2013-05-01 20:25:00,
2013-05-01 13:30:00,65.7,21.0,29.32,East,91,2.7,3.6,18,0.00,,CLR,0.00,VWS V14.00,2013-05-01 20:30:00,
2013-05-01 13:35:00,65.8,21.2,29.32,ENE,76,2.2,5.4,18,0.00,,CLR,0.00,VWS V14.00,2013-05-01 20:35:00,
2013-05-01 13:40:00,66.0,21.3,29.32,WNW,299,3.1,3.1,18,0.00,,CLR,0.00,VWS V14.00,2013-05-01 20:40:00,
2013-05-01 13:46:00,65.7,21.0,29.32,WNW,294,4.0,4.0,18,0.00,,CLR,0.00,VWS V14.00,2013-05-01 20:46:00,
2013-05-01 13:51:00,65.3,20.7,29.32,SW,230,0.0,7.6,18,0.00,,CLR,0.00,VWS V14.00,2013-05-01 20:51:00,
2013-05-01 13:57:00,64.4,20.0,29.32,North,357,2.7,3.6,18,0.00,,CLR,0.00,VWS V14.00,2013-05-01 20:57:00,
2013-05-01 14:02:00,64.6,20.1,29.32,SSW,199,2.7,3.6,18,0.00,,CLR,0.00,VWS V14.00,2013-05-01 21:02:00,
2013-05-01 14:08:00,64.8,20.3,29.32,NNW,348,2.7,3.1,18,0.00,,CLR,0.00,VWS V14.00,2013-05-01 21:08:00,
2013-05-01 14:13:00,64.4,20.0,29.32,SSE,149,2.7,3.6,18,0.00,,CLR,0.00,VWS V14.00,2013-05-01 21:13:00,
2013-05-01 14:19:00,64.2,19.9,29.32,North,2,3.1,3.1,18,0.00,,CLR,0.00,VWS V14.00,2013-05-01 21:19:00,
2013-05-01 14:24:00,64.2,19.9,29.32,West,275,2.7,3.1,18,0.00,,CLR,0.00,VWS V14.00,2013-05-01 21:24:00,
2013-05-01 14:29:00,63.9,19.6,29.32,North,353,0.0,3.6,18,0.00,,CLR,0.00,VWS V14.00,2013-05-01 21:29:00,
2013-05-01 14:35:00,63.7,19.4,29.32,SW,222,2.7,3.6,18,0.00,,CLR,0.00,VWS V14.00,2013-05-01 21:35:00,
2013-05-01 14:40:00,63.9,19.6,29.32,WNW,290,3.1,4.0,18,0.00,,CLR,0.00,VWS V14.00,2013-05-01 21:40:00,
2013-05-01 14:46:00,63.9,19.6,29.32,NW,317,3.1,5.4,18,0.00,,CLR,0.00,VWS V14.00,2013-05-01 21:46:00,
2013-05-01 14:51:00,63.5,19.3,29.32,NNW,348,3.6,4.0,18,0.00,,CLR,0.00,VWS V14.00,2013-05-01 21:51:00,
2013-05-01 14:57:00,63.7,19.4,29.32,North,357,2.7,4.9,18,0.00,,CLR,0.00,VWS V14.00,2013-05-01 21:57:00,
2013-05-01 15:02:00,63.9,19.6,29.32,West,270,2.7,2.7,18,0.00,,CLR,0.00,VWS V14.00,2013-05-01 22:02:00,
2013-05-01 15:08:00,63.9,19.6,29.32,North,0,2.7,4.9,18,0.00,,CLR,0.00,VWS V14.00,2013-05-01 22:08:00,
2013-05-01 15:13:00,63.9,19.6,29.32,North,357,5.8,5.8,18,0.00,,CLR,0.00,VWS V14.00,2013-05-01 22:13:00,
2013-05-01 15:19:00,63.9,19.6,29.32,North,353,2.7,3.6,18,0.00,,CLR,0.00,VWS V14.00,2013-05-01 22:19:00,
2013-05-01 15:25:00,64.2,19.9,29.32,WSW,238,3.1,4.0,18,0.00,,CLR,0.00,VWS V14.00,2013-05-01 22:25:00,
2013-05-01 15:30:00,64.4,20.0,29.32,NNW,335,0.0,3.1,18,0.00,,CLR,0.00,VWS V14.00,2013-05-01 22:30:00,
2013-05-01 15:36:00,64.8,20.3,29.32,NW,321,2.7,4.5,18,0.00,,CLR,0.00,VWS V14.00,2013-05-01 22:36:00,
2013-05-01 15:42:00,64.9,20.4,29.32,NW,323,4.0,4.0,18,0.00,,CLR,0.00,VWS V14.00,2013-05-01 22:42:00,
2013-05-01 15:47:00,64.9,20.4,29.32,NW,318,3.1,3.6,18,0.00,,CLR,0.00,VWS V14.00,2013-05-01 22:47:00,
2013-05-01 15:53:00,64.8,20.3,29.32,NNW,346,0.0,3.1,18,0.00,,CLR,0.00,VWS V14.00,2013-05-01 22:53:00,
2013-05-01 15:58:00,64.9,20.4,29.32,North,353,2.7,3.1,18,0.00,,CLR,0.00,VWS V14.00,2013-05-01 22:58:00,
2013-05-01 16:03:00,65.1,20.6,29.32,NW,323,2.2,5.8,18,0.00,,CLR,0.00,VWS V14.00,2013-05-01 23:03:00,
2013-05-01 16:09:00,65.3,20.7,29.32,NNW,328,3.1,3.1,18,0.00,,CLR,0.00,VWS V14.00,2013-05-01 23:09:00,
2013-05-01 16:15:00,65.1,20.6,29.32,WNW,300,3.6,4.9,18,0.00,,CLR,0.00,VWS V14.00,2013-05-01 23:15:00,
2013-05-01 16:20:00,64.8,20.3,29.32,SSE,167,2.2,8.3,18,0.00,,CLR,0.00,VWS V14.00,2013-05-01 23:20:00,
2013-05-01 16:25:00,64.6,20.1,29.32,NW,321,3.1,4.0,18,0.00,,CLR,0.00,VWS V14.00,2013-05-01 23:25:00,
2013-05-01 16:31:00,64.8,20.3,29.32,NW,324,2.7,2.7,18,0.00,,CLR,0.00,VWS V14.00,2013-05-01 23:31:00,
2013-05-01 16:36:00,64.9,20.4,29.32,NW,307,3.1,3.1,18,0.00,,CLR,0.00,VWS V14.00,2013-05-01 23:36:00,
2013-05-01 16:42:00,64.9,20.4,29.32,NNW,337,2.2,2.7,18,0.00,,CLR,0.00,VWS V14.00,2013-05-01 23:42:00,
2013-05-01 16:47:00,64.8,20.3,29.32,NNW,341,2.7,2.7,18,0.00,,CLR,0.00,VWS V14.00,2013-05-01 23:47:00,
2013-05-01 16:52:00,64.8,20.3,29.32,WNW,300,6.3,6.3,18,0.00,,CLR,0.00,VWS V14.00,2013-05-01 23:52:00,
2013-05-01 16:58:00,64.6,20.1,29.32,NNW,343,3.1,3.1,18,0.00,,CLR,0.00,VWS V14.00,2013-05-01 23:58:00,
2013-05-01 17:03:00,64.6,20.1,29.32,WNW,294,0.0,5.4,18,0.00,,CLR,0.00,VWS V14.00,2013-05-02 00:03:00,
2013-05-01 17:09:00,64.6,20.1,29.32,NNW,335,5.4,5.4,18,0.00,,CLR,0.00,VWS V14.00,2013-05-02 00:09:00,
2013-05-01 17:15:00,64.6,20.1,29.32,SW,235,3.1,4.0,18,0.00,,CLR,0.00,VWS V14.00,2013-05-02 00:15:00,
2013-05-01 17:20:00,64.6,20.1,29.32,North,353,2.7,3.1,18,0.00,,CLR,0.00,VWS V14.00,2013-05-02 00:20:00,
2013-05-01 17:26:00,64.8,20.3,29.32,South,174,2.7,5.4,18,0.00,,CLR,0.00,VWS V14.00,2013-05-02 00:26:00,
2013-05-01 17:32:00,64.8,20.3,29.32,SSW,212,0.0,4.9,18,0.00,,CLR,0.00,VWS V14.00,2013-05-02 00:32:00,
2013-05-01 17:38:00,64.8,20.3,29.32,NW,311,2.2,4.0,18,0.00,,CLR,0.00,VWS V14.00,2013-05-02 00:38:00,
2013-05-01 17:43:00,64.9,20.4,29.32,WNW,285,4.9,4.9,18,0.00,,CLR,0.00,VWS V14.00,2013-05-02 00:43:00,
2013-05-01 17:48:00,64.8,20.3,29.32,ENE,59,0.0,4.0,18,0.00,,CLR,0.00,VWS V14.00,2013-05-02 00:48:00,
2013-05-01 17:54:00,64.4,20.0,29.32,NNW,335,3.1,3.1,18,0.00,,CLR,0.00,VWS V14.00,2013-05-02 00:54:00,
2013-05-01 17:59:00,64.4,20.0,29.32,WNW,293,3.1,4.0,18,0.00,,CLR,0.00,VWS V14.00,2013-05-02 00:59:00,
2013-05-01 18:05:00,64.2,19.9,29.32,NW,305,6.3,9.6,18,0.00,,CLR,0.00,VWS V14.00,2013-05-02 01:05:00,
2013-05-01 18:11:00,64.0,19.7,29.32,NNW,332,3.1,3.1,18,0.00,,CLR,0.00,VWS V14.00,2013-05-02 01:11:00,
2013-05-01 18:16:00,64.2,19.9,29.32,NW,313,3.1,5.4,18,0.00,,CLR,0.00,VWS V14.00,2013-05-02 01:16:00,
2013-05-01 18:22:00,64.2,19.9,29.32,NNE,20,2.7,3.6,18,0.00,,CLR,0.00,VWS V14.00,2013-05-02 01:22:00,
2013-05-01 18:28:00,63.9,19.6,29.32,NNW,334,2.7,4.0,18,0.00,,CLR,0.00,VWS V14.00,2013-05-02 01:28:00,
2013-05-01 18:34:00,63.0,18.8,29.32,WNW,291,2.2,3.6,18,0.00,,CLR,0.00,VWS V14.00,2013-05-02 01:34:00,
2013-05-01 18:40:00,63.0,18.8,29.32,SE,135,4.0,6.3,18,0.00,,CLR,0.00,VWS V14.00,2013-05-02 01:40:00,
2013-05-01 18:46:00,63.0,18.8,29.32,ESE,105,2.2,2.7,18,0.00,,CLR,0.00,VWS V14.00,2013-05-02 01:46:00,
2013-05-01 18:51:00,63.0,18.8,29.32,SSW,194,2.7,2.7,18,0.00,,CLR,0.00,VWS V14.00,2013-05-02 01:51:00,
2013-05-01 18:57:00,63.0,18.8,29.32,WSW,245,2.7,4.9,18,0.00,,CLR,0.00,VWS V14.00,2013-05-02 01:57:00,
2013-05-01 19:03:00,62.6,18.5,29.32,WNW,302,5.4,5.4,18,0.00,,CLR,0.00,VWS V14.00,2013-05-02 02:03:00,
2013-05-01 19:08:00,62.2,19.5,29.32,NW,313,0.0,2.7,19,0.00,,CLR,0.00,VWS V14.00,2013-05-02 02:08:00,
2013-05-01 19:14:00,61.7,19.0,29.32,SE,139,2.2,3.6,19,0.00,,CLR,0.00,VWS V14.00,2013-05-02 02:14:00,
2013-05-01 19:19:00,61.0,18.5,29.32,North,353,3.6,3.6,19,0.00,,CLR,0.00,VWS V14.00,2013-05-02 02:19:00,
2013-05-01 19:25:00,60.4,18.0,29.32,WNW,297,0.0,5.4,19,0.00,,CLR,0.00,VWS V14.00,2013-05-02 02:25:00,
2013-05-01 19:31:00,59.7,17.4,29.32,NW,323,2.7,3.1,19,0.00,,CLR,0.00,VWS V14.00,2013-05-02 02:31:00,
2013-05-01 19:37:00,59.4,17.1,29.32,West,265,0.0,0.0,19,0.00,,CLR,0.00,VWS V14.00,2013-05-02 02:37:00,
2013-05-01 19:42:00,59.0,16.8,29.32,NW,305,2.7,2.7,19,0.00,,CLR,0.00,VWS V14.00,2013-05-02 02:42:00,
2013-05-01 19:47:00,58.5,16.4,29.32,NW,308,3.6,4.9,19,0.00,,CLR,0.00,VWS V14.00,2013-05-02 02:47:00,
2013-05-01 19:52:00,58.1,16.1,29.32,WNW,290,5.4,5.4,19,0.00,,CLR,0.00,VWS V14.00,2013-05-02 02:52:00,
2013-05-01 19:58:00,57.9,15.9,29.32,WNW,297,0.0,3.6,19,0.00,,CLR,0.00,VWS V14.00,2013-05-02 02:58:00,
2013-05-01 20:04:00,57.6,15.6,29.32,WNW,297,2.7,3.6,19,0.00,,CLR,0.00,VWS V14.00,2013-05-02 03:04:00,
2013-05-01 20:10:00,57.2,15.3,29.32,NNW,335,0.0,0.0,19,0.00,,CLR,0.00,VWS V14.00,2013-05-02 03:10:00,
2013-05-01 20:15:00,56.7,16.1,29.32,NNW,335,0.0,0.0,20,0.00,,CLR,0.00,VWS V14.00,2013-05-02 03:15:00,
2013-05-01 20:20:00,56.1,15.6,29.32,NNW,335,0.0,0.0,20,0.00,,CLR,0.00,VWS V14.00,2013-05-02 03:20:00,
2013-05-01 20:26:00,55.4,15.0,29.32,NNW,335,0.0,0.0,20,0.00,,CLR,0.00,VWS V14.00,2013-05-02 03:26:00,
2013-05-01 20:31:00,54.5,14.3,29.32,NNW,335,0.0,0.0,20,0.00,,CLR,0.00,VWS V14.00,2013-05-02 03:31:00,
2013-05-01 20:36:00,53.6,16.7,29.32,NNW,335,0.0,0.0,23,0.00,,CLR,0.00,VWS V14.00,2013-05-02 03:36:00,
2013-05-01 20:42:00,52.9,16.1,29.32,NNW,335,0.0,0.0,23,0.00,,CLR,0.00,VWS V14.00,2013-05-02 03:42:00,
2013-05-01 20:48:00,52.0,15.4,29.32,NNW,335,0.0,0.0,23,0.00,,CLR,0.00,VWS V14.00,2013-05-02 03:48:00,
2013-05-01 20:54:00,51.3,17.6,29.32,NNW,335,0.0,0.0,26,0.00,,CLR,0.00,VWS V14.00,2013-05-02 03:54:00,
2013-05-01 20:59:00,50.5,17.0,29.32,NNW,335,0.0,0.0,26,0.00,,CLR,0.00,VWS V14.00,2013-05-02 03:59:00,
2013-05-01 21:02:00,50.4,16.8,29.32,NNW,335,0.0,0.0,26,0.00,,CLR,0.00,VWS V14.00,2013-05-02 04:02:00,
2013-05-01 21:03:00,50.4,16.8,29.32,NNW,335,0.0,0.0,26,0.00,,CLR,0.00,VWS V14.00,2013-05-02 04:03:00,
2013-05-01 21:04:00,50.2,16.6,29.32,NNW,335,0.0,0.0,26,0.00,,CLR,0.00,VWS V14.00,2013-05-02 04:04:00,
2013-05-01 21:07:00,50.0,16.5,29.32,NNW,335,0.0,0.0,26,0.00,,CLR,0.00,VWS V14.00,2013-05-02 04:07:00,
2013-05-01 21:11:00,49.8,17.2,29.32,NNW,335,0.0,0.0,27,0.00,,CLR,0.00,VWS V14.00,2013-05-02 04:11:00,
2013-05-01 21:17:00,49.5,16.9,29.32,NNW,335,0.0,0.0,27,0.00,,CLR,0.00,VWS V14.00,2013-05-02 04:17:00,
2013-05-01 21:22:00,49.1,16.6,29.32,NNW,335,0.0,0.0,27,0.00,,CLR,0.00,VWS V14.00,2013-05-02 04:22:00,
2013-05-01 21:28:00,48.9,16.4,29.32,NNW,335,0.0,0.0,27,0.00,,CLR,0.00,VWS V14.00,2013-05-02 04:28:00,
2013-05-01 21:34:00,48.7,16.3,29.32,NNW,335,0.0,0.0,27,0.00,,CLR,0.00,VWS V14.00,2013-05-02 04:34:00,
2013-05-01 21:39:00,48.7,16.3,29.32,NNW,335,0.0,0.0,27,0.00,,CLR,0.00,VWS V14.00,2013-05-02 04:39:00,
2013-05-01 21:45:00,48.7,16.3,29.32,NNW,335,0.0,0.0,27,0.00,,CLR,0.00,VWS V14.00,2013-05-02 04:45:00,
2013-05-01 21:51:00,48.7,16.3,29.32,NNW,335,0.0,0.0,27,0.00,,CLR,0.00,VWS V14.00,2013-05-02 04:51:00,
2013-05-01 21:56:00,48.7,16.3,29.32,NNW,335,0.0,0.0,27,0.00,,CLR,0.00,VWS V14.00,2013-05-02 04:56:00,
2013-05-01 22:02:00,48.7,16.3,29.32,WNW,298,0.0,0.0,27,0.00,,CLR,0.00,VWS V14.00,2013-05-02 05:02:00,
2013-05-01 22:07:00,48.7,16.3,29.32,WNW,287,0.0,0.0,27,0.00,,CLR,0.00,VWS V14.00,2013-05-02 05:07:00,
2013-05-01 22:12:00,48.7,16.3,29.32,WNW,287,0.0,0.0,27,0.00,,CLR,0.00,VWS V14.00,2013-05-02 05:12:00,
2013-05-01 22:18:00,49.1,16.6,29.32,WNW,303,0.0,0.0,27,0.00,,CLR,0.00,VWS V14.00,2013-05-02 05:18:00,
2013-05-01 22:23:00,49.5,16.9,29.32,West,271,0.0,0.0,27,0.00,,CLR,0.00,VWS V14.00,2013-05-02 05:23:00,
2013-05-01 22:28:00,49.6,17.0,29.32,West,271,0.0,0.0,27,0.00,,CLR,0.00,VWS V14.00,2013-05-02 05:28:00,
2013-05-01 22:34:00,49.6,17.0,29.32,West,271,0.0,0.0,27,0.00,,CLR,0.00,VWS V14.00,2013-05-02 05:34:00,
2013-05-01 22:40:00,49.5,16.9,29.32,West,271,0.0,0.0,27,0.00,,CLR,0.00,VWS V14.00,2013-05-02 05:40:00,
2013-05-01 22:46:00,49.3,16.7,29.32,West,271,0.0,0.0,27,0.00,,CLR,0.00,VWS V14.00,2013-05-02 05:46:00,
2013-05-01 22:51:00,48.9,16.4,29.32,West,271,0.0,0.0,27,0.00,,CLR,0.00,VWS V14.00,2013-05-02 05:51:00,
2013-05-01 22:56:00,48.7,16.3,29.32,West,271,0.0,0.0,27,0.00,,CLR,0.00,VWS V14.00,2013-05-02 05:56:00,
2013-05-01 23:02:00,48.4,16.8,29.32,West,271,0.0,0.0,28,0.00,,CLR,0.00,VWS V14.00,2013-05-02 06:02:00,
2013-05-01 23:08:00,48.0,16.5,29.32,West,271,0.0,0.0,28,0.00,,CLR,0.00,VWS V14.00,2013-05-02 06:08:00,
2013-05-01 23:13:00,47.8,16.3,29.32,West,271,0.0,0.0,28,0.00,,CLR,0.00,VWS V14.00,2013-05-02 06:13:00,
2013-05-01 23:19:00,47.7,16.2,29.32,West,274,0.0,0.0,28,0.00,,CLR,0.00,VWS V14.00,2013-05-02 06:19:00,
2013-05-01 23:24:00,47.5,16.0,29.32,West,274,0.0,0.0,28,0.00,,CLR,0.00,VWS V14.00,2013-05-02 06:24:00,
2013-05-01 23:30:00,47.5,16.0,29.32,NE,35,0.0,0.0,28,0.00,,CLR,0.00,VWS V14.00,2013-05-02 06:30:00,
2013-05-01 23:36:00,47.5,16.8,29.32,NE,37,0.0,0.0,29,0.00,,CLR,0.00,VWS V14.00,2013-05-02 06:36:00,
2013-05-01 23:41:00,47.7,17.0,29.32,NE,40,0.0,0.0,29,0.00,,CLR,0.00,VWS V14.00,2013-05-02 06:41:00,
2013-05-01 23:46:00,47.8,17.1,29.32,NE,40,0.0,0.0,29,0.00,,CLR,0.00,VWS V14.00,2013-05-02 06:46:00,
2013-05-01 23:52:00,47.8,17.1,29.32,NE,40,0.0,2.2,29,0.00,,CLR,0.00,VWS V14.00,2013-05-02 06:52:00,
2013-05-01 23:57:00,47.7,17.0,29.32,NE,40,0.0,0.0,29,0.00,,CLR,0.00,VWS V14.00,2013-05-02 06:57:00,